User: anonymous   Login
Location: West Cummington
(42.4920°N, 72.9680°W)
Time: 23:32:28
(UTC-05:00)
Language:

Cosmos 841 Rocket - Orbit

View from above orbital plane
View from above orbital plane
View from above satellite
View from above satellite

Ground track
Ground track

The orbit data is extracted from the following two-line orbital elements,

1 09023U 76069B   17055.87954561  .00000049  00000-0  24038-4 0  9999
2 09023  74.0439 304.0371 0017002 140.3220 219.9182 14.39532670128668
Epoch (UTC): 24 February 2017 21:06:32
Eccentricity: 0.0017002
inclination: 74.0439°
perigee height: 748 km
apogee height: 772 km
right ascension of ascending node: 304.0371°
argument of perigee: 140.3220°
revolutions per day: 14.39532670
mean anomaly at epoch: 219.9182°
orbit number at epoch: 12866

The dashed part of the orbit path shows where the satellite is in the earth's shadow,  

DLR